TimePST,TemperatureF,Dew PointF,Humidity,Sea Level PressureIn,VisibilityMPH,Wind Direction,Wind SpeedMPH,Gust SpeedMPH,PrecipitationIn,Events,Conditions,WindDirDegrees,DateUTC
12:08 AM,41.0,41.0,100,30.02,10.0,SSW,19.6,25.3,N/A,Rain,Light Rain,200,2012-11-24 08:08:00
12:21 AM,41.0,41.0,100,29.99,10.0,South,24.2,28.8,N/A,,Overcast,190,2012-11-24 08:21:00
12:26 AM,41.0,41.0,100,29.99,10.0,South,19.6,31.1,N/A,,Overcast,190,2012-11-24 08:26:00
12:58 AM,40.6,40.6,100,30.04,10.0,South,23.0,34.5,0.01,,Overcast,190,2012-11-24 08:58:00
1:28 AM,41.0,41.0,100,30.00,10.0,South,18.4,31.1,N/A,,Overcast,190,2012-11-24 09:28:00
1:48 AM,41.0,41.0,100,30.01,10.0,SSW,17.3,27.6,N/A,,Overcast,200,2012-11-24 09:48:00
1:58 AM,41.0,41.0,100,30.05,10.0,SSW,15.0,-,N/A,,Overcast,210,2012-11-24 09:58:00
2:13 AM,41.0,41.0,100,30.02,10.0,SSW,19.6,25.3,N/A,,Overcast,210,2012-11-24 10:13:00
2:23 AM,41.0,41.0,100,30.01,10.0,SSW,16.1,-,N/A,,Overcast,200,2012-11-24 10:23:00
2:49 AM,41.0,41.0,100,30.02,10.0,SSW,15.0,-,N/A,,Overcast,210,2012-11-24 10:49:00
2:54 AM,41.0,41.0,100,30.02,10.0,SSW,15.0,-,N/A,,Overcast,210,2012-11-24 10:54:00
2:58 AM,41.0,41.0,100,30.06,10.0,SSW,16.1,23.0,0.00,,Overcast,200,2012-11-24 10:58:00
3:18 AM,41.0,41.0,100,30.03,8.0,SSW,13.8,-,N/A,,Overcast,210,2012-11-24 11:18:00
3:38 AM,41.0,41.0,100,30.03,9.0,SSW,12.7,24.2,N/A,,Overcast,210,2012-11-24 11:38:00
3:43 AM,41.0,41.0,100,30.03,9.0,SSW,17.3,24.2,N/A,,Overcast,210,2012-11-24 11:43:00
3:50 AM,41.0,41.0,100,30.03,10.0,SSW,15.0,20.7,N/A,,Overcast,210,2012-11-24 11:50:00
3:58 AM,41.2,41.2,100,30.08,10.0,SW,16.1,20.7,0.00,,Overcast,220,2012-11-24 11:58:00
4:48 AM,41.0,41.0,100,30.05,10.0,SW,17.3,-,N/A,,Overcast,220,2012-11-24 12:48:00
4:58 AM,40.8,40.8,100,30.10,10.0,SW,15.0,-,N/A,,Overcast,220,2012-11-24 12:58:00
5:58 AM,40.5,40.5,100,30.11,10.0,SW,12.7,-,N/A,,Overcast,230,2012-11-24 13:58:00
6:08 AM,41.0,41.0,100,30.07,10.0,WSW,12.7,-,N/A,,Overcast,240,2012-11-24 14:08:00
6:40 AM,39.2,39.2,100,30.08,10.0,WSW,15.0,-,N/A,,Overcast,240,2012-11-24 14:40:00
6:43 AM,39.2,39.2,100,30.08,10.0,SW,15.0,-,N/A,,Overcast,230,2012-11-24 14:43:00
6:55 AM,39.4,39.4,100,30.13,10.0,WSW,12.7,-,0.00,,Overcast,250,2012-11-24 14:55:00
7:55 AM,37.2,37.2,100,30.14,10.0,WSW,9.2,-,N/A,,Overcast,240,2012-11-24 15:55:00
8:33 AM,37.4,37.4,100,30.11,10.0,West,10.4,-,N/A,,Overcast,270,2012-11-24 16:33:00
8:38 AM,37.4,37.4,100,30.11,10.0,West,10.4,-,N/A,,Overcast,270,2012-11-24 16:38:00
8:48 AM,37.4,37.4,100,30.11,10.0,West,11.5,-,N/A,,Overcast,270,2012-11-24 16:48:00
8:58 AM,36.5,36.5,100,30.18,10.0,WSW,9.2,-,N/A,,Overcast,250,2012-11-24 16:58:00
9:08 AM,35.6,35.6,100,30.12,10.0,West,9.2,-,N/A,,Overcast,270,2012-11-24 17:08:00
9:18 AM,35.6,35.6,100,30.12,10.0,West,11.5,-,N/A,,Overcast,270,2012-11-24 17:18:00
9:28 AM,35.6,35.6,100,30.12,10.0,West,9.2,-,N/A,,Overcast,260,2012-11-24 17:28:00
9:53 AM,35.6,35.6,100,30.13,10.0,WSW,6.9,-,N/A,,Overcast,250,2012-11-24 17:53:00
9:58 AM,36.0,36.0,100,30.19,10.0,West,5.8,-,N/A,,Overcast,260,2012-11-24 17:58:00
10:03 AM,35.6,35.6,100,30.13,10.0,Variable,5.8,-,N/A,,Overcast,0,2012-11-24 18:03:00
10:34 AM,35.6,35.6,100,30.13,10.0,WSW,3.5,-,N/A,,Overcast,240,2012-11-24 18:34:00
10:49 AM,37.4,37.4,100,30.13,10.0,SW,2.3,-,N/A,,Overcast,230,2012-11-24 18:49:00
10:54 AM,37.4,37.4,100,30.13,10.0,SW,3.5,-,N/A,,Overcast,230,2012-11-24 18:54:00
10:58 AM,36.7,36.7,100,30.19,10.0,Variable,3.5,-,0.00,,Overcast,0,2012-11-24 18:58:00
11:28 AM,37.4,37.4,100,30.12,10.0,WSW,6.9,-,N/A,,Mostly Cloudy,240,2012-11-24 19:28:00
11:47 AM,39.2,39.2,100,30.12,10.0,WSW,8.1,-,N/A,,Mostly Cloudy,250,2012-11-24 19:47:00
11:58 AM,39.2,39.2,100,30.16,10.0,West,4.6,-,0.00,,Overcast,260,2012-11-24 19:58:00
12:53 PM,39.2,39.2,100,30.11,10.0,NW,3.5,-,N/A,,Overcast,310,2012-11-24 20:53:00
12:58 PM,39.6,39.6,100,30.16,10.0,NNW,3.5,-,N/A,,Overcast,340,2012-11-24 20:58:00
1:38 PM,39.2,39.2,100,30.10,10.0,ESE,2.3,-,N/A,,Scattered Clouds,120,2012-11-24 21:38:00
1:43 PM,39.2,39.2,100,30.10,10.0,ESE,3.5,-,N/A,,Mostly Cloudy,110,2012-11-24 21:43:00
1:44 PM,39.2,39.2,100,30.10,10.0,ESE,3.5,-,N/A,,Mostly Cloudy,120,2012-11-24 21:44:00
1:49 PM,39.2,39.2,100,30.10,10.0,SSE,2.3,-,N/A,,Mostly Cloudy,150,2012-11-24 21:49:00
1:52 PM,39.2,39.2,100,30.10,10.0,SE,2.3,-,N/A,,Mostly Cloudy,130,2012-11-24 21:52:00
1:58 PM,39.4,39.4,100,30.15,10.0,SE,3.5,-,0.00,,Mostly Cloudy,140,2012-11-24 21:58:00
2:58 PM,39.4,39.4,100,30.15,8.0,SSE,2.3,-,N/A,,Overcast,160,2012-11-24 22:58:00
3:48 PM,37.4,37.4,100,30.11,10.0,ESE,1.2,-,N/A,,Scattered Clouds,120,2012-11-24 23:48:00
3:58 PM,37.4,37.4,100,30.17,10.0,South,3.5,-,N/A,,Partly Cloudy,190,2012-11-24 23:58:00
4:58 PM,35.2,35.2,100,30.16,10.0,South,4.6,-,N/A,,Partly Cloudy,190,2012-11-25 00:58:00
5:07 PM,35.6,35.6,100,30.10,6.0,SSW,4.6,-,N/A,,Scattered Clouds,210,2012-11-25 01:07:00
5:12 PM,35.6,35.6,100,30.10,6.0,SSW,3.5,-,N/A,,Mostly Cloudy,210,2012-11-25 01:12:00
5:27 PM,35.6,35.6,100,30.10,9.0,South,3.5,-,N/A,,Overcast,190,2012-11-25 01:27:00
5:58 PM,35.4,35.2,99,30.16,10.0,South,2.3,-,N/A,,Overcast,170,2012-11-25 01:58:00
6:43 PM,35.6,35.6,100,30.09,9.0,South,4.6,-,N/A,,Overcast,180,2012-11-25 02:43:00
6:53 PM,33.8,33.8,100,30.09,9.0,South,4.6,-,N/A,,Mostly Cloudy,180,2012-11-25 02:53:00
6:58 PM,35.6,35.6,100,30.09,9.0,South,4.6,-,N/A,,Scattered Clouds,170,2012-11-25 02:58:00
7:18 PM,35.6,35.6,100,30.08,2.5,WSW,3.5,-,N/A,,Scattered Clouds,240,2012-11-25 03:18:00
7:23 PM,33.8,33.8,100,30.08,2.5,SW,4.6,-,N/A,,Mostly Cloudy,230,2012-11-25 03:23:00
7:33 PM,33.8,33.8,100,30.08,2.5,SW,4.6,-,N/A,,Overcast,220,2012-11-25 03:33:00
7:35 PM,35.6,35.6,100,30.08,2.5,SW,4.6,-,N/A,,Overcast,230,2012-11-25 03:35:00
7:45 PM,33.8,33.8,100,30.09,3.0,WSW,5.8,-,N/A,,Overcast,240,2012-11-25 03:45:00
7:50 PM,33.8,33.8,100,30.09,4.0,WSW,5.8,-,N/A,,Overcast,250,2012-11-25 03:50:00
7:55 PM,33.8,33.8,100,30.08,5.0,West,5.8,-,N/A,,Overcast,260,2012-11-25 03:55:00
7:56 PM,33.8,33.8,100,30.08,5.0,West,5.8,-,N/A,,Overcast,260,2012-11-25 03:56:00
7:58 PM,33.8,33.8,100,30.08,5.0,West,4.6,-,N/A,,Overcast,260,2012-11-25 03:58:00
8:03 PM,33.8,33.8,100,30.08,5.0,WSW,6.9,-,N/A,,Overcast,250,2012-11-25 04:03:00
8:08 PM,33.8,33.8,100,30.08,6.0,WSW,8.1,-,N/A,,Overcast,250,2012-11-25 04:08:00
8:12 PM,33.8,33.8,100,30.08,8.0,WSW,6.9,-,N/A,,Overcast,250,2012-11-25 04:12:00
8:20 PM,33.8,33.8,100,30.08,1.8,SW,5.8,-,N/A,,Overcast,230,2012-11-25 04:20:00
8:25 PM,33.8,33.8,100,30.08,1.0,SW,5.8,-,N/A,,Mist,230,2012-11-25 04:25:00
8:30 PM,33.8,33.8,100,30.08,0.8,WSW,6.9,-,N/A,,Mist,240,2012-11-25 04:30:00
8:35 PM,33.8,33.8,100,30.08,0.5,SW,5.8,-,N/A,Fog,Fog,230,2012-11-25 04:35:00
8:45 PM,32.0,32.0,100,30.08,0.5,WSW,5.8,-,N/A,Fog,Fog,240,2012-11-25 04:45:00
8:50 PM,32.0,32.0,100,30.08,0.2,WSW,5.8,-,N/A,Fog,Fog,250,2012-11-25 04:50:00
8:54 PM,32.0,32.0,100,30.08,0.2,WSW,4.6,-,N/A,Fog,Light Freezing Fog,240,2012-11-25 04:54:00
8:58 PM,32.0,32.0,100,30.15,0.2,SW,3.5,-,0.00,Fog,Light Freezing Fog,230,2012-11-25 04:58:00
9:03 PM,32.0,32.0,100,30.08,0.2,SW,3.5,-,N/A,Fog,Light Freezing Fog,220,2012-11-25 05:03:00
9:08 PM,32.0,32.0,100,30.08,0.5,SW,2.3,-,N/A,Fog,Light Freezing Fog,220,2012-11-25 05:08:00
9:09 PM,32.0,32.0,100,30.08,0.5,SSW,2.3,-,N/A,Fog,Light Freezing Fog,210,2012-11-25 05:09:00
9:24 PM,32.0,32.0,100,30.08,0.5,SW,3.5,-,N/A,Fog,Light Freezing Fog,220,2012-11-25 05:24:00
9:39 PM,32.0,32.0,100,30.08,0.2,SW,4.6,-,N/A,Fog,Light Freezing Fog,220,2012-11-25 05:39:00
9:44 PM,32.0,32.0,100,30.08,0.2,SW,4.6,-,N/A,Fog,Light Freezing Fog,220,2012-11-25 05:44:00
9:49 PM,32.0,32.0,100,30.08,0.2,SSW,4.6,-,N/A,Fog,Light Freezing Fog,210,2012-11-25 05:49:00
9:54 PM,32.0,32.0,100,30.08,0.2,SSW,4.6,-,N/A,Fog,Light Freezing Fog,200,2012-11-25 05:54:00
9:58 PM,32.0,31.8,99,30.15,0.2,SSW,4.6,-,0.00,Fog,Light Freezing Fog,200,2012-11-25 05:58:00
10:33 PM,32.0,32.0,100,30.08,0.2,SW,2.3,-,N/A,Fog,Light Freezing Fog,230,2012-11-25 06:33:00
10:38 PM,32.0,32.0,100,30.08,0.2,SW,3.5,-,N/A,Fog,Light Freezing Fog,220,2012-11-25 06:38:00
10:48 PM,32.0,32.0,100,30.08,0.2,SSW,3.5,-,N/A,Fog,Light Freezing Fog,200,2012-11-25 06:48:00
10:50 PM,32.0,32.0,100,30.08,0.2,SW,3.5,-,N/A,Fog,Light Freezing Fog,220,2012-11-25 06:50:00
10:53 PM,32.0,32.0,100,30.08,0.2,WSW,3.5,-,N/A,Fog,Light Freezing Fog,240,2012-11-25 06:53:00
10:55 PM,32.0,32.0,100,30.08,0.2,WSW,3.5,-,N/A,Fog,Light Freezing Fog,240,2012-11-25 06:55:00
10:58 PM,31.3,31.3,100,30.14,0.2,SW,3.5,-,0.00,Fog,Light Freezing Fog,220,2012-11-25 06:58:00
11:08 PM,32.0,32.0,100,30.08,0.2,WSW,2.3,-,N/A,Fog,Light Freezing Fog,240,2012-11-25 07:08:00
11:23 PM,32.0,32.0,100,30.09,0.5,Variable,3.5,-,N/A,Fog,Light Freezing Fog,0,2012-11-25 07:23:00
11:45 PM,32.0,32.0,100,30.09,0.5,WNW,3.5,-,N/A,Fog,Light Freezing Fog,300,2012-11-25 07:45:00
11:51 PM,32.0,32.0,100,30.09,0.5,NW,2.3,-,N/A,Fog,Light Freezing Fog,320,2012-11-25 07:51:00
11:54 PM,32.0,32.0,100,30.09,0.5,West,4.6,-,N/A,Fog,Light Freezing Fog,280,2012-11-25 07:54:00
11:58 PM,32.0,32.0,100,30.16,0.5,West,5.8,-,0.00,Fog,Light Freezing Fog,280,2012-11-25 07:58:00